Date String (YYYY-MM-DD hh:mm:ss) UTC,Instrument flags,Ambient pressure (hPa),Sample flow (lpm),Bypass flow (lpm),Sample temperature (°C),Ambient temperature (°C),ASC tube jacket temperature (°C),LED temperature (°C),Box temperature (°C),Sample RH (%),Span deviation,Mass concentration (μg/m³),Mass concentration (μg/m³),Mass concentration (μg/m³)
DateTimeUTC,F1_M11,P_M11,Q1_M11,Q2_M11,T1_M11,T2_M11,T3_M11,T4_M11,T5_M11,U1_M11,ZSPAN_M11,X2_M11,X0_M11,X1_M11
2021-12-31 21:00:00,,0809.7,5.01,0.00,20.8,22.3,00.0,29.8,22.7,19.6,0000.0,0002.43,0005.87,0001.85
2021-12-31 21:01:00,,0809.6,5.01,0.00,21.0,22.5,00.0,29.9,22.8,19.4,0000.0,0002.45,0005.92,0001.85
2021-12-31 21:02:00,,0809.6,5.00,0.00,20.9,21.9,00.0,29.9,22.6,19.4,0000.0,0002.44,0005.89,0001.85
2021-12-31 21:03:00,,0809.7,5.00,0.00,20.9,21.5,00.0,29.9,22.4,19.4,0000.0,0002.45,0005.98,0001.85
2021-12-31 21:04:00,,0809.7,4.99,0.00,20.8,21.0,00.0,29.9,22.2,19.5,0000.0,0002.44,0005.96,0001.84
2021-12-31 21:05:00,,0809.6,5.02,0.00,20.7,20.7,00.0,29.9,22.1,19.5,0000.0,0002.42,0005.91,0001.85
2021-12-31 21:06:00,,0809.6,4.99,0.00,20.7,20.5,00.0,29.9,22.0,19.6,0000.0,0002.45,0005.85,0001.87
2021-12-31 21:07:00,,0809.6,4.99,0.00,20.6,20.3,00.0,29.8,22.0,19.6,0000.0,0002.47,0004.51,0001.89
2021-12-31 21:08:00,,0809.8,5.00,0.00,20.6,20.2,00.0,29.8,22.0,19.7,0000.0,0002.51,0004.64,0001.88
2021-12-31 21:09:00,,0809.8,5.00,0.00,20.6,20.1,00.0,29.8,22.0,19.7,0000.0,0002.48,0004.57,0001.88
2021-12-31 21:10:00,,0810.0,5.00,0.00,20.7,21.0,00.0,29.8,22.3,19.6,0000.0,0002.45,0004.41,0001.85
2021-12-31 21:11:00,,0809.9,4.99,0.00,20.9,22.1,00.0,29.9,22.8,19.4,0000.0,0002.39,0004.06,0001.84
2021-12-31 21:12:00,,0809.8,5.01,0.00,21.1,22.7,00.0,29.9,23.0,19.2,0000.0,0002.36,0004.03,0001.83
2021-12-31 21:13:00,,0809.7,5.00,0.00,21.1,22.3,00.0,30.0,23.0,19.1,0000.0,0002.38,0004.15,0001.82
2021-12-31 21:14:00,,0809.8,5.01,0.00,21.1,21.9,00.0,30.0,22.8,19.0,0000.0,0002.40,0004.29,0001.82
2021-12-31 21:15:00,,0809.7,5.00,0.00,21.1,21.6,00.0,30.0,22.7,19.1,0000.0,0002.39,0004.79,0001.82
2021-12-31 21:16:00,,0809.7,5.01,0.00,21.0,21.2,00.0,30.0,22.5,19.1,0000.0,0002.30,0004.61,0001.78
2021-12-31 21:17:00,,0809.7,4.99,0.00,20.9,20.9,00.0,30.0,22.4,19.1,0000.0,0002.20,0004.50,0001.71
2021-12-31 21:18:00,,0809.6,4.99,0.00,20.9,20.7,00.0,30.0,22.3,19.2,0000.0,0002.10,0004.42,0001.64
2021-12-31 21:19:00,,0809.7,5.00,0.00,20.9,20.5,00.0,30.0,22.3,19.2,0000.0,0002.01,0004.26,0001.57
2021-12-31 21:20:00,,0809.7,5.01,0.00,20.8,20.3,00.0,30.0,22.2,19.3,0000.0,0002.05,0004.82,0001.52
2021-12-31 21:21:00,,0809.8,5.00,0.00,20.8,20.3,00.0,29.9,22.2,19.4,0000.0,0001.98,0004.66,0001.46
2021-12-31 21:22:00,,0809.8,5.00,0.00,20.7,20.2,00.0,29.9,22.2,19.4,0000.0,0001.98,0004.56,0001.39
2021-12-31 21:23:00,,0809.7,4.99,0.00,20.8,20.8,00.0,29.9,22.4,19.3,0000.0,0001.93,0004.50,0001.31
2021-12-31 21:24:00,,0809.7,5.00,0.00,21.0,21.9,00.0,30.0,22.8,19.2,0000.0,0001.85,0004.30,0001.26
2021-12-31 21:25:00,,0809.7,5.01,0.00,21.2,22.7,00.0,30.0,23.1,18.9,0000.0,0001.82,0004.23,0001.20
2021-12-31 21:26:00,,0809.7,5.00,0.00,21.3,22.5,00.0,30.1,23.2,18.8,0000.0,0001.80,0003.79,0001.13
2021-12-31 21:27:00,,0809.7,4.99,0.00,21.3,22.1,00.0,30.1,23.1,18.8,0000.0,0001.82,0003.88,0001.08
2021-12-31 21:28:00,,0809.7,5.01,0.00,21.3,21.7,00.0,30.1,22.9,18.7,0000.0,0001.81,0004.00,0001.06
2021-12-31 21:29:00,,0809.8,5.02,0.00,21.2,21.4,00.0,30.2,22.7,18.8,0000.0,0001.80,0003.98,0001.05
2021-12-31 21:30:00,,0809.7,4.99,0.00,21.1,21.2,00.0,30.1,22.6,18.8,0000.0,0001.79,0003.94,0001.03
2021-12-31 21:31:00,,0809.8,5.01,0.00,21.1,20.9,00.0,30.1,22.6,18.8,0000.0,0001.73,0003.50,0001.01
2021-12-31 21:32:00,,0809.8,4.99,0.00,21.0,20.8,00.0,30.1,22.5,18.8,0000.0,0001.73,0003.44,0000.99
2021-12-31 21:33:00,,0809.7,5.00,0.00,21.0,20.6,00.0,30.1,22.4,18.9,0000.0,0001.71,0003.48,0000.98
2021-12-31 21:34:00,,0809.8,5.00,0.00,20.9,20.4,00.0,30.1,22.3,18.9,0000.0,0001.71,0003.45,0000.97
2021-12-31 21:35:00,,0809.9,5.00,0.00,20.9,20.3,00.0,30.1,22.3,19.0,0000.0,0001.70,0003.39,0000.96
2021-12-31 21:36:00,,0810.0,5.00,0.00,20.9,20.4,00.0,30.1,22.4,18.9,0000.0,0001.63,0003.29,0000.94
2021-12-31 21:37:00,,0810.0,4.99,0.00,21.0,21.4,00.0,30.1,22.7,18.8,0000.0,0001.56,0003.24,0000.92
2021-12-31 21:38:00,,0809.9,5.00,0.00,21.2,22.3,00.0,30.2,23.1,18.6,0000.0,0001.55,0003.37,0000.90
2021-12-31 21:39:00,,0809.8,4.99,0.00,21.3,22.5,00.0,30.2,23.2,18.4,0000.0,0001.51,0003.16,0000.88
2021-12-31 21:40:00,,0809.7,5.01,0.00,21.3,22.1,00.0,30.2,23.1,18.4,0000.0,0001.49,0003.12,0000.86
2021-12-31 21:41:00,,0809.7,4.99,0.00,21.3,21.7,00.0,30.2,22.9,18.4,0000.0,0001.47,0003.08,0000.84
2021-12-31 21:42:00,,0809.8,5.01,0.00,21.2,21.4,00.0,30.2,22.8,18.4,0000.0,0001.40,0002.96,0000.83
2021-12-31 21:43:00,,0809.9,4.99,0.00,21.2,21.1,00.0,30.2,22.7,18.4,0000.0,0001.40,0003.01,0000.82
2021-12-31 21:44:00,,0810.0,5.01,0.00,21.1,20.8,00.0,30.2,22.6,18.5,0000.0,0001.38,0002.93,0000.82
2021-12-31 21:45:00,,0809.9,4.99,0.00,21.1,20.6,00.0,30.2,22.5,18.5,0000.0,0001.35,0002.82,0000.80
2021-12-31 21:46:00,,0809.8,4.99,0.00,21.0,20.5,00.0,30.2,22.4,18.6,0000.0,0001.37,0002.89,0000.79
2021-12-31 21:47:00,,0809.7,5.00,0.00,20.9,20.3,00.0,30.2,22.4,18.6,0000.0,0001.38,0002.95,0000.79
2021-12-31 21:48:00,,0809.7,5.01,0.00,20.9,20.4,00.0,30.1,22.3,18.7,0000.0,0001.44,0002.93,0000.80
2021-12-31 21:49:00,,0809.8,4.99,0.00,21.0,21.2,00.0,30.1,22.6,18.6,0000.0,0001.41,0002.77,0000.79
2021-12-31 21:50:00,,0809.9,5.01,0.00,21.2,22.2,00.0,30.2,23.0,18.4,0000.0,0001.42,0002.73,0000.80
2021-12-31 21:51:00,,0809.9,4.99,0.00,21.4,22.6,00.0,30.2,23.3,18.2,0000.0,0001.50,0003.02,0000.82
2021-12-31 21:52:00,,0809.9,4.99,0.00,21.4,22.3,00.0,30.3,23.2,18.2,0000.0,0001.52,0003.05,0000.83
2021-12-31 21:53:00,,0810.0,5.02,0.00,21.4,21.9,00.0,30.3,23.1,18.2,0000.0,0001.55,0003.18,0000.84
2021-12-31 21:54:00,,0809.9,4.99,0.00,21.3,21.6,00.0,30.3,23.0,18.2,0000.0,0001.59,0003.21,0000.87
2021-12-31 21:55:00,,0809.9,5.00,0.00,21.3,21.3,00.0,30.3,22.9,18.3,0000.0,0001.59,0003.28,0000.88
2021-12-31 21:56:00,,0809.9,5.02,0.00,21.3,21.1,00.0,30.3,22.8,18.3,0000.0,0001.60,0003.36,0000.89
2021-12-31 21:57:00,,0809.9,4.99,0.00,21.2,20.9,00.0,30.3,22.7,18.4,0000.0,0001.58,0003.35,0000.91
2021-12-31 21:58:00,,0809.9,5.01,0.00,21.2,20.8,00.0,30.3,22.6,18.4,0000.0,0001.55,0003.25,0000.92
2021-12-31 21:59:00,,0809.9,4.99,0.00,21.1,20.6,00.0,30.3,22.5,18.5,0000.0,0001.50,0003.06,0000.93
